Date String (YYYY-MM-DD hh:mm:ss) UTC,Instrument flags,Ambient pressure (hPa),Sample flow (lpm),Bypass flow (lpm),Sample temperature (°C),Ambient temperature (°C),ASC tube jacket temperature (°C),LED temperature (°C),Box temperature (°C),Sample RH (%),Span deviation,Mass concentration (μg/m³),Mass concentration (μg/m³),Mass concentration (μg/m³)
DateTimeUTC,F1_M11,P_M11,Q1_M11,Q2_M11,T1_M11,T2_M11,T3_M11,T4_M11,T5_M11,U1_M11,ZSPAN_M11,X0_M11,X2_M11,X1_M11
2021-08-29 10:00:00,,0832.7,5.00,0.00,29.6,26.9,00.0,38.9,31.2,26.8,0001.9,0019.53,0012.21,0011.36
2021-08-29 10:01:00,,0832.8,5.00,0.00,29.6,27.3,00.0,38.9,31.2,26.8,0002.0,0019.00,0012.20,0011.34
2021-08-29 10:02:00,,0832.8,5.01,0.00,29.6,27.7,00.0,38.8,31.3,26.8,0002.3,0018.20,0012.18,0011.34
2021-08-29 10:03:00,,0832.8,4.99,0.00,29.6,27.9,00.0,38.8,31.3,26.8,0002.4,0017.59,0012.21,0011.34
2021-08-29 10:04:00,,0832.8,4.99,0.00,29.6,28.1,00.0,38.8,31.4,26.8,0002.2,0017.46,0012.22,0011.32
2021-08-29 10:05:00,,0832.8,5.00,0.00,29.7,28.3,00.0,38.8,31.4,26.7,0002.1,0017.34,0012.20,0011.29
2021-08-29 10:06:00,,0832.8,5.00,0.00,29.7,28.5,00.0,38.8,31.4,26.7,0001.9,0017.07,0012.15,0011.26
2021-08-29 10:07:00,,0832.8,5.00,0.00,29.7,28.6,00.0,38.8,31.5,26.6,0001.7,0017.05,0012.11,0011.22
2021-08-29 10:08:00,,0832.8,4.99,0.00,29.7,28.7,00.0,38.8,31.5,26.6,0001.5,0017.77,0012.12,0011.20
2021-08-29 10:09:00,,0832.8,5.01,0.00,29.8,28.8,00.0,38.8,31.6,26.5,0001.7,0017.91,0012.07,0011.15
2021-08-29 10:10:00,,0832.8,4.99,0.00,29.8,28.8,00.0,38.9,31.6,26.4,0001.8,0018.35,0012.06,0011.14
2021-08-29 10:11:00,,0832.8,5.01,0.00,29.8,28.9,00.0,38.9,31.7,26.4,0001.7,0018.44,0012.00,0011.10
2021-08-29 10:12:00,,0832.8,4.99,0.00,29.9,28.9,00.0,38.9,31.7,26.4,0001.7,0019.06,0011.97,0011.07
2021-08-29 10:13:00,,0832.8,5.02,0.00,29.9,29.0,00.0,38.9,31.7,26.3,0001.6,0020.23,0011.94,0011.05
2021-08-29 10:14:00,,0832.8,4.99,0.00,29.9,29.0,00.0,38.9,31.7,26.3,0001.5,0021.02,0011.84,0011.00
2021-08-29 10:15:00,,0832.8,5.01,0.00,29.9,29.1,00.0,39.0,31.7,26.2,0001.3,0021.14,0011.82,0010.97
2021-08-29 10:16:00,,0832.8,4.97,0.00,30.0,29.1,00.0,39.0,31.8,26.1,0001.9,0021.23,0011.81,0010.96
2021-08-29 10:17:00,,0832.8,5.01,0.00,30.0,29.2,00.0,39.0,31.8,26.1,0002.0,0021.31,0011.80,0010.95
2021-08-29 10:18:00,,0832.8,4.99,0.00,30.0,29.2,00.0,39.0,31.9,26.1,0002.1,0021.26,0011.82,0010.93
2021-08-29 10:19:00,,0832.8,5.02,0.00,30.0,29.2,00.0,39.0,31.9,26.0,0002.4,0020.56,0011.80,0010.93
2021-08-29 10:20:00,,0832.9,5.00,0.00,30.0,27.9,00.0,39.0,31.6,26.0,0002.4,0020.29,0011.81,0010.93
2021-08-29 10:21:00,,0832.9,4.99,0.00,29.8,26.4,00.0,39.0,31.2,26.3,0002.4,0019.92,0011.86,0010.93
2021-08-29 10:22:00,,0832.8,5.01,0.00,29.7,26.3,00.0,39.0,31.1,26.5,0002.6,0019.68,0011.91,0010.94
2021-08-29 10:23:00,,0832.8,4.99,0.00,29.6,26.7,00.0,38.9,31.1,26.6,0002.5,0019.24,0011.90,0010.95
2021-08-29 10:24:00,,0832.8,5.01,0.00,29.6,27.1,00.0,38.9,31.2,26.7,0002.6,0018.65,0011.91,0010.95
2021-08-29 10:25:00,,0832.9,4.99,0.00,29.6,27.5,00.0,38.9,31.2,26.7,0002.4,0019.21,0011.93,0010.95
2021-08-29 10:26:00,,0832.8,5.01,0.00,29.6,27.8,00.0,38.8,31.3,26.6,0002.5,0018.95,0011.87,0010.92
2021-08-29 10:27:00,,0832.8,4.99,0.00,29.6,28.0,00.0,38.8,31.4,26.6,0002.2,0019.04,0011.86,0010.93
2021-08-29 10:28:00,,0832.8,5.00,0.00,29.6,28.2,00.0,38.8,31.4,26.5,0002.3,0019.08,0011.82,0010.91
2021-08-29 10:29:00,,0832.8,5.02,0.00,29.7,28.4,00.0,38.8,31.4,26.5,0002.4,0019.18,0011.77,0010.90
2021-08-29 10:30:00,,0832.8,5.00,0.00,29.7,28.5,00.0,38.8,31.4,26.4,0002.2,0019.40,0011.75,0010.89
2021-08-29 10:31:00,,0832.8,4.99,0.00,29.7,28.6,00.0,38.8,31.5,26.4,0002.2,0019.80,0011.74,0010.90
2021-08-29 10:32:00,,0832.8,5.01,0.00,29.7,28.7,00.0,38.8,31.5,26.4,0002.0,0020.15,0011.70,0010.90
2021-08-29 10:33:00,,0832.8,4.99,0.00,29.8,28.8,00.0,38.8,31.6,26.3,0001.8,0019.93,0011.64,0010.89
2021-08-29 10:34:00,,0832.8,5.01,0.00,29.8,28.8,00.0,38.9,31.6,26.1,0001.6,0019.57,0011.61,0010.86
2021-08-29 10:35:00,,0832.8,4.98,0.00,29.8,28.9,00.0,38.9,31.6,26.1,0001.6,0019.30,0011.61,0010.87
2021-08-29 10:36:00,,0832.8,5.00,0.00,29.8,29.0,00.0,38.9,31.6,26.1,0001.8,0018.91,0011.64,0010.87
2021-08-29 10:37:00,,0832.8,4.99,0.00,29.9,29.0,00.0,38.9,31.7,26.1,0001.7,0019.70,0011.69,0010.90
2021-08-29 10:38:00,,0832.9,5.00,0.00,29.9,29.1,00.0,38.9,31.7,26.1,0001.7,0019.47,0011.71,0010.90
2021-08-29 10:39:00,,0832.8,5.00,0.00,29.9,29.1,00.0,38.9,31.7,26.0,0001.6,0019.38,0011.71,0010.89
2021-08-29 10:40:00,,0832.8,5.00,0.00,29.9,29.1,00.0,39.0,31.7,25.9,0001.4,0019.21,0011.70,0010.86
2021-08-29 10:41:00,,0832.9,5.00,0.00,30.0,29.2,00.0,39.0,31.8,25.8,0001.5,0018.98,0011.70,0010.84
2021-08-29 10:42:00,,0832.8,5.00,0.00,30.0,29.2,00.0,39.0,31.8,25.8,0001.5,0019.06,0011.72,0010.84
2021-08-29 10:43:00,,0832.8,4.99,0.00,30.0,29.2,00.0,39.0,31.8,25.8,0001.4,0018.50,0011.70,0010.84
2021-08-29 10:44:00,,0832.8,5.01,0.00,30.0,29.3,00.0,39.0,31.9,25.8,0001.3,0018.51,0011.75,0010.88
2021-08-29 10:45:00,,0832.9,4.99,0.00,30.1,29.3,00.0,39.1,31.9,25.7,0001.5,0018.89,0011.83,0010.93
2021-08-29 10:46:00,,0832.9,4.99,0.00,30.1,28.3,00.0,39.1,31.7,25.8,0001.5,0018.67,0011.88,0010.98
2021-08-29 10:47:00,,0832.8,5.00,0.00,29.9,26.7,00.0,39.0,31.3,25.9,0001.5,0017.76,0011.90,0011.02
2021-08-29 10:48:00,,0832.8,5.01,0.00,29.8,26.4,00.0,39.0,31.2,26.1,0001.5,0017.30,0011.93,0011.05
2021-08-29 10:49:00,,0832.8,4.99,0.00,29.7,26.7,00.0,39.0,31.2,26.2,0001.3,0017.26,0011.96,0011.08
2021-08-29 10:50:00,,0832.8,4.99,0.00,29.7,27.2,00.0,38.9,31.2,26.3,0001.4,0017.14,0011.96,0011.09
2021-08-29 10:51:00,,0832.9,5.01,0.00,29.7,27.5,00.0,38.9,31.3,26.4,0001.6,0017.21,0012.01,0011.14
2021-08-29 10:52:00,,0832.8,5.00,0.00,29.7,27.8,00.0,38.9,31.3,26.3,0001.5,0017.14,0012.01,0011.17
2021-08-29 10:53:00,,0832.8,4.99,0.00,29.7,28.1,00.0,38.9,31.4,26.3,0001.4,0016.87,0012.03,0011.17
2021-08-29 10:54:00,,0832.8,5.01,0.00,29.7,28.2,00.0,38.9,31.4,26.3,0001.7,0017.05,0012.02,0011.17
2021-08-29 10:55:00,,0832.9,5.00,0.00,29.7,28.4,00.0,38.9,31.4,26.3,0001.8,0017.48,0011.98,0011.16
2021-08-29 10:56:00,,0832.9,5.00,0.00,29.7,28.5,00.0,38.9,31.5,26.3,0001.8,0017.53,0011.92,0011.14
2021-08-29 10:57:00,,0832.9,4.99,0.00,29.8,28.6,00.0,38.9,31.5,26.2,0002.2,0018.07,0011.92,0011.12
2021-08-29 10:58:00,,0832.9,5.01,0.00,29.8,28.7,00.0,38.9,31.6,26.2,0002.1,0018.09,0011.90,0011.11
2021-08-29 10:59:00,,0832.9,5.00,0.00,29.8,28.8,00.0,38.9,31.6,26.1,0002.1,0017.64,0011.85,0011.08
